Home   Weather   Kunduz   Past weeks

Flag for Afghanistan Past Weather in Kunduz, Afghanistan — Yesterday and Last 2 Weeks

Now
32 °F

Ice fog.


Feels Like: 26 °F
Forecast: 31 / 49 °F
Wind: 6 mph from Northeast

Location: Termez Airport

Current Time: Jan 17, 2017 at 7:46:22 am

Latest Report: Jan 17, 2017 at 7:00 am


Visibility: 1 mi

Pressure: 30.27 "Hg

Humidity: 87%

Dew Point: 28 °F

Location of KunduzLocation

Past Weather in Kunduz — Graph

°F

Kunduz Temperature Yesterday

Maximum temperature yesterday: 48 °F (at 2:30 pm)
Minimum temperature yesterday: 28 °F (at 2:00 am)
Average temperature yesterday: 37 °F

High & Low Weather Summary for the Past Weeks

 TemperatureHumidityPressure
High57 °F (Jan 11, 2:00 pm)100% (Jan 6, 6:00 am)30.39 "Hg (Jan 6, 6:00 am)
Low27 °F (Jan 10, 5:00 am)18% (Jan 10, 3:30 pm)29.98 "Hg (Jan 2, 6:30 am)
Average39 °F75%30.20 "Hg
* Reported Jan 2 6:30 am — Jan 17 6:30 am, Kunduz, Weather by CustomWeather, © 2017

Note: Actual official high and low records may vary slightly from our data, if they occured in-between our weather recording intervals... More about our weather records

Advertising

Kunduz Weather History for the Previous 24 Hours

Scroll right to see more
 ConditionsComfort  
Time TempWeatherWind HumidityBarometerVisibility
6:30 am
Tue, Jan 17
32 °FIce fog.5 mph87%30.27 "Hg1 mi
6:00 am32 °FIce fog.6 mph87%30.27 "Hg1 mi
5:00 am32 °FIce fog.6 mph87%30.24 "Hg2 mi
4:30 am32 °FIce fog.3 mph87%30.24 "Hg2 mi
4:00 am30 °FIce fog.3 mph86%30.24 "Hg1 mi
3:30 am30 °FIce fog.3 mph93%30.27 "Hg1 mi
3:00 am30 °FIce fog.5 mph86%30.27 "Hg2 mi
2:30 am30 °FIce fog.5 mph86%30.24 "Hg1 mi
2:00 am30 °FIce fog.1 mph86%30.24 "Hg1 mi
1:30 am30 °FIce fog.5 mph86%30.24 "Hg1 mi
1:00 am30 °FIce fog.5 mph86%30.24 "Hg2 mi
12:30 am30 °FIce fog.7 mph86%30.24 "Hg2 mi
12:00 am32 °FIce fog.6 mph80%30.24 "Hg2 mi
11:00 pm
Mon, Jan 16
32 °FIce fog.6 mph80%30.24 "Hg3 mi
10:30 pm32 °FIce fog.6 mph80%30.24 "Hg3 mi
10:00 pm32 °FIce fog.5 mph80%30.24 "Hg3 mi
9:00 pm34 °FFog.5 mph81%30.24 "Hg3 mi
8:30 pm36 °FFog.6 mph70%30.24 "Hg3 mi
8:00 pm36 °FFog.3 mph75%30.24 "Hg3 mi
7:30 pm36 °FFog.3 mph75%30.24 "Hg3 mi
7:00 pm37 °FHaze.5 mph70%30.24 "Hg3 mi
6:30 pm39 °FHaze.5 mph65%30.24 "Hg2 mi
6:00 pm39 °FHaze.3 mph65%30.24 "Hg3 mi
5:30 pm41 °FClear.5 mph61%30.21 "Hg4 mi
5:00 pm43 °FClear.6 mph57%30.21 "Hg5 mi
4:00 pm46 °FSunny.9 mph50%30.21 "Hg10 mi
3:30 pm48 °FPassing clouds.7 mph46%30.21 "HgN/A
3:00 pm48 °FPassing clouds.7 mph43%30.21 "HgN/A
2:30 pm48 °FPassing clouds.7 mph46%30.18 "HgN/A
2:00 pm46 °FPassing clouds.9 mph50%30.18 "HgN/A
1:30 pm46 °FPassing clouds.9 mph50%30.21 "HgN/A
1:00 pm46 °FClear.9 mph50%30.21 "Hg6 mi
12:00 pm43 °FClear.9 mph66%30.24 "Hg4 mi
11:30 am43 °FClear.8 mph61%30.24 "Hg4 mi
11:00 am41 °FClear.8 mph66%30.27 "Hg4 mi
10:30 am39 °FClear.9 mph70%30.27 "Hg5 mi
10:00 am37 °FFog.10 mph75%30.27 "Hg3 mi
9:30 am36 °FFog.9 mph81%30.27 "Hg3 mi
8:30 am32 °FIce fog.7 mph87%30.27 "Hg2 mi
8:00 am30 °FIce fog.6 mph93%30.27 "Hg2 mi
7:30 am30 °FIce fog.6 mph86%30.27 "Hg2 mi
7:00 am30 °FIce fog.6 mph93%30.27 "Hg2 mi
Weather by CustomWeather, © 2017

See weather overviewHow to use our weather pages